Regional Weather Roundup
Issued by NWS Newport/Morehead, NC

Current Version | Previous Version | Graphics & Text | Print | Product List | Glossary Off
Versions: 1 2 3 4 5 6 7 8 9 10 11 12 13 14 15 16 17 18 19 20 21 22 23 24 25 26 27 28 29 30 31 32 33 34 35 36 37 38 39 40 41 42 43 44 45 46 47 48 49 50

000
ASUS42 KMHX 011313
RWRMHX
WEATHER ROUNDUP FOR EASTERN NORTH CAROLINA
NATIONAL WEATHER SERVICE NEWPORT/MOREHEAD CITY NC
900 AM EDT WED JUL 01 2015

NOTE: "FAIR" INDICATES FEW OR NO CLOUDS BELOW 12,000 FEET
WITH NO SIGNIFICANT WEATHER AND/OR OBSTRUCTIONS TO VISIBILITY

NCZ015>017-031-032-045>047-102-103-011400-
NORTH COAST

CITY           SKY/WX    TMP DP  RH WIND       PRES   REMARKS
EDENTON        MOSUNNY   76  68  77 W8        29.94S
ELIZABETH CITY SUNNY     77  69  76 W9        29.93R
KITTY HAWK     SUNNY     82  68  63 SW9G21    29.92R
MANTEO         SUNNY     80  68  66 W13       29.94R

$$

NCZ045>047-081-094-103-104-011400-
CENTRAL COAST

CITY           SKY/WX    TMP DP  RH WIND       PRES   REMARKS
FRISCO         SUNNY     78  71  79 SW14      29.95S
SWANQUARTER      N/A     79 N/A N/A W15       29.91S

$$

NCZ095-097-098-100-101-011400-
SOUTHERN COAST

CITY           SKY/WX    TMP DP  RH WIND       PRES   REMARKS
BEAUFORT       SUNNY     79  71  76 SW14      29.97R
CEDAR ISLAND     N/A     81 N/A N/A S10G16    30.00S
JACKSONVILLE   SUNNY     76  68  76 W8        29.98R
PINEY ISLAND   SUNNY    N/A N/A N/A SW10      29.96R
WILMINGTON     SUNNY     76  69  79 W8        29.99R


$$

NCZ011>013-027>030-043-044-078>080-089-090>093-098-011400-
COASTAL PLAIN

CITY           SKY/WX    TMP DP  RH WIND       PRES   REMARKS
AHOSKIE        MOSUNNY   72  69  89 CALM      29.95R
CLINTON        CLOUDY    71  71  99 SW5       29.99R FOG
ELIZABETHTOWN  CLOUDY    72  70  95 W5        29.99R FOG
GOLDSBORO      CLOUDY    73  70  88 W6        29.95S
GREENVILLE     MOSUNNY   75  70  83 W8        29.98S
HAVELOCK       MOSUNNY   78  68  71 W15G23    29.98R
KENANSVILLE    CLOUDY    72  68  88 SW7       29.99S
KINSTON        CLOUDY    73  68  83 SW8       29.98R
NEW BERN       CLOUDY    74  68  81 W8        29.99R
RICHLANDS      CLOUDY    73  64  73 W6        29.99R
ROCKY MOUNT    MOSUNNY   75  69  81 W9        29.96R
WASHINGTON     MOSUNNY   74  68  80 W8        29.96S
WHITEVILLE     CLOUDY    72  69  89 SW3       29.99R

$$

AMZ130-135-150-152-154-156-158-170-250-252-270-ANZ085-086-088-633-658-670-011400-
MARINE OBSERVATIONS

STATION/POSITION TIME  TEMP    WIND        PRES    WAVE   SWELL
                       AIR SEA DIR/SP/G            HT/PER HT/PER
                 (UTC) (F)     (DEG/KT/KT) (MB)    (FT/S) (FT/S)
CHESAPEAKE LIGHT 1300   74     240/ 14/ 16 1013.3
64 E VA BEACH    1250   78 76  210/ 14/ 16 1012.6    5/ 8   5/ 8
DUCK             1200   79 59  230/ 13/ 18 1012.1
2 E DUCK         1211      65                N/A     2/ 8
OREGON INLET     1200   79 81  200/ 12/ 15 1013.1
13E OREGON INLT  1300      73                N/A     4/ 7
HATTERAS CG      1200   78 81  230/  9/ 14 1013.8
DIAMOND BUOY     1250   80 82  230/ 17/ 21 1014.0    6/ 6   2/12
CAPE LOOKOUT     1300   80     240/ 15/ 19 1014.8
BEAUFORT LAB     1200   78 80  250/  7/ 11 1013.9
30 SE NEW RVR IN 1208   80 81  260/ 17/ 21 1015.5
27 SE WRIGHTSVLE 1200      80  260/ 17/ 21   N/A
5 SE WRIGHTSVLE  1208   78 80  250/ 12/ 14 1015.0
225 S CAPE HAT   1250   82 80  240/ 17/ 19 1019.0    7/ 6
41 SE CHARLESTON 1250   79 82  240/ 17/ 19 1015.9    4/ 6   2/ 7

$$



USA.gov is the U.S. government's official web portal to all federal, state and local government web resources and services.